Time,TemperatureF,DewpointF,PressureIn,WindDirection,WindDirectionDegrees,WindSpeedMPH,WindSpeedGustMPH,Humidity,HourlyPrecipIn,Conditions,Clouds,dailyrainin,SoftwareType,DateUTC
2013-03-12 20:03:00,75.5,65.0,29.94,SW,228,2.0,-999.0,70,0.00,,,0.00,Wunderground v.1.15,2013-03-13 00:03:00,
2013-03-12 20:04:00,75.5,65.0,29.94,SW,230,0.0,-999.0,70,0.00,,,0.00,Wunderground v.1.15,2013-03-13 00:04:00,
2013-03-12 20:07:00,75.4,65.3,29.94,WSW,239,0.0,-999.0,71,0.00,,,0.00,Wunderground v.1.15,2013-03-13 00:07:00,
2013-03-12 20:09:00,75.3,65.2,29.95,NW,304,1.0,-999.0,71,0.00,,,0.00,Wunderground v.1.15,2013-03-13 00:09:00,
2013-03-12 20:10:00,75.3,65.2,29.95,NW,304,1.0,-999.0,71,0.00,,,0.00,Wunderground v.1.15,2013-03-13 00:10:00,
2013-03-12 20:15:00,74.9,65.7,29.95,West,263,1.0,-999.0,73,0.00,,,0.00,Wunderground v.1.15,2013-03-13 00:15:00,
2013-03-12 20:17:00,74.8,65.6,29.95,SW,235,1.0,-999.0,73,0.00,,,0.00,Wunderground v.1.15,2013-03-13 00:17:00,
2013-03-12 20:19:00,74.8,66.0,29.95,SW,234,1.0,-999.0,74,0.00,,,0.00,Wunderground v.1.15,2013-03-13 00:19:00,
2013-03-12 20:21:00,74.7,65.9,29.95,SW,225,1.0,-999.0,74,0.00,,,0.00,Wunderground v.1.15,2013-03-13 00:21:00,
2013-03-12 20:22:00,74.6,65.8,29.95,WNW,302,1.0,-999.0,74,0.00,,,0.00,Wunderground v.1.15,2013-03-13 00:22:00,
2013-03-12 20:27:00,74.3,66.2,29.95,SW,236,0.0,-999.0,76,0.00,,,0.00,Wunderground v.1.15,2013-03-13 00:27:00,
2013-03-12 20:29:00,74.2,66.1,29.95,WSW,252,0.0,-999.0,76,0.00,,,0.00,Wunderground v.1.15,2013-03-13 00:29:00,
2013-03-12 20:31:00,74.2,66.1,29.95,SSW,200,0.0,-999.0,76,0.00,,,0.00,Wunderground v.1.15,2013-03-13 00:31:00,
2013-03-12 20:32:00,74.1,66.0,29.95,WSW,249,0.0,-999.0,76,0.00,,,0.00,Wunderground v.1.15,2013-03-13 00:32:00,
2013-03-12 20:34:00,74.0,66.0,29.96,SW,217,0.0,-999.0,76,0.00,,,0.00,Wunderground v.1.15,2013-03-13 00:34:00,
2013-03-12 20:39:00,73.9,65.5,29.96,SSW,200,1.0,-999.0,75,0.00,,,0.00,Wunderground v.1.15,2013-03-13 00:39:00,
2013-03-12 20:41:00,73.9,65.5,29.96,WSW,242,1.0,-999.0,75,0.00,,,0.00,Wunderground v.1.15,2013-03-13 00:41:00,
2013-03-12 20:44:00,73.8,65.8,29.96,WNW,300,1.0,-999.0,76,0.00,,,0.00,Wunderground v.1.15,2013-03-13 00:44:00,
2013-03-12 20:46:00,73.7,65.7,29.96,WNW,282,1.0,-999.0,76,0.00,,,0.00,Wunderground v.1.15,2013-03-13 00:46:00,
2013-03-12 20:52:00,73.5,65.5,29.97,NW,324,1.0,-999.0,76,0.00,,,0.00,Wunderground v.1.15,2013-03-13 00:52:00,
2013-03-12 20:53:00,73.4,65.4,29.97,NW,324,1.0,-999.0,76,0.00,,,0.00,Wunderground v.1.15,2013-03-13 00:53:00,
2013-03-12 20:56:00,73.2,65.6,29.97,West,259,0.0,-999.0,77,0.00,,,0.00,Wunderground v.1.15,2013-03-13 00:56:00,
2013-03-12 20:58:00,73.1,65.5,29.97,SSW,210,0.0,-999.0,77,0.00,,,0.00,Wunderground v.1.15,2013-03-13 00:58:00,
2013-03-12 20:59:00,73.1,65.5,29.97,SSW,210,0.0,-999.0,77,0.00,,,0.00,Wunderground v.1.15,2013-03-13 00:59:00,
2013-03-12 21:02:00,72.9,65.3,29.97,West,272,0.0,0.0,77,0.00,,,0.00,Wunderground v.1.15,2013-03-13 01:02:00,
2013-03-12 21:05:00,72.8,65.2,29.97,SW,230,0.0,0.0,77,0.00,,,0.00,Wunderground v.1.15,2013-03-13 01:05:00,
2013-03-12 21:08:00,72.7,65.1,29.97,WSW,251,0.0,1.0,77,0.00,,,0.00,Wunderground v.1.15,2013-03-13 01:08:00,
2013-03-12 21:10:00,72.7,65.1,29.97,West,266,0.0,2.0,77,0.00,,,0.00,Wunderground v.1.15,2013-03-13 01:10:00,
2013-03-12 21:11:00,72.7,65.1,29.97,WSW,258,1.0,2.0,77,0.00,,,0.00,Wunderground v.1.15,2013-03-13 01:11:00,
2013-03-12 21:16:00,72.7,65.1,29.97,SW,224,1.0,2.0,77,0.00,,,0.00,Wunderground v.1.15,2013-03-13 01:16:00,
2013-03-12 21:17:00,72.7,65.1,29.97,SSW,213,1.0,2.0,77,0.00,,,0.00,Wunderground v.1.15,2013-03-13 01:17:00,
2013-03-12 21:19:00,72.6,65.0,29.97,SSW,212,1.0,1.0,77,0.00,,,0.00,Wunderground v.1.15,2013-03-13 01:19:00,
2013-03-12 21:20:00,72.6,65.0,29.97,SW,229,1.0,2.0,77,0.00,,,0.00,Wunderground v.1.15,2013-03-13 01:20:00,
2013-03-12 21:23:00,72.5,65.2,29.97,West,277,1.0,2.0,78,0.00,,,0.00,Wunderground v.1.15,2013-03-13 01:23:00,
2013-03-12 21:26:00,72.4,65.2,29.97,WSW,245,1.0,2.0,78,0.00,,,0.00,Wunderground v.1.15,2013-03-13 01:26:00,
2013-03-12 21:27:00,72.4,65.2,29.97,SW,222,1.0,2.0,78,0.00,,,0.00,Wunderground v.1.15,2013-03-13 01:27:00,
2013-03-12 21:29:00,72.4,65.2,29.97,WSW,248,1.0,1.0,78,0.00,,,0.00,Wunderground v.1.15,2013-03-13 01:29:00,
2013-03-12 21:30:00,72.3,65.1,29.97,WSW,243,0.0,1.0,78,0.00,,,0.00,Wunderground v.1.15,2013-03-13 01:30:00,
2013-03-12 21:32:00,72.3,65.1,29.97,WSW,243,0.0,4.0,78,0.00,,,0.00,Wunderground v.1.15,2013-03-13 01:32:00,
2013-03-12 21:33:00,72.2,65.0,29.97,SW,230,0.0,4.0,78,0.00,,,0.00,Wunderground v.1.15,2013-03-13 01:33:00,
2013-03-12 21:35:00,72.1,65.2,29.97,WSW,245,0.0,4.0,79,0.00,,,0.00,Wunderground v.1.15,2013-03-13 01:35:00,
2013-03-12 21:36:00,72.1,65.2,29.97,West,276,0.0,4.0,79,0.00,,,0.00,Wunderground v.1.15,2013-03-13 01:36:00,
2013-03-12 21:37:00,72.0,65.1,29.97,West,275,0.0,4.0,79,0.00,,,0.00,Wunderground v.1.15,2013-03-13 01:37:00,
2013-03-12 21:40:00,71.9,65.0,29.98,WSW,240,0.0,4.0,79,0.00,,,0.00,Wunderground v.1.15,2013-03-13 01:40:00,
2013-03-12 21:42:00,71.8,64.9,29.98,WSW,248,0.0,4.0,79,0.00,,,0.00,Wunderground v.1.15,2013-03-13 01:42:00,
2013-03-12 21:43:00,71.8,65.3,29.98,SW,229,0.0,4.0,80,0.00,,,0.00,Wunderground v.1.15,2013-03-13 01:43:00,
2013-03-12 21:46:00,71.7,65.2,29.98,SW,224,0.0,4.0,80,0.00,,,0.00,Wunderground v.1.15,2013-03-13 01:46:00,
2013-03-12 21:50:00,71.5,65.0,29.98,WSW,251,0.0,4.0,80,0.00,,,0.00,Wunderground v.1.15,2013-03-13 01:50:00,
2013-03-12 21:52:00,71.5,65.4,29.98,SW,217,0.0,4.0,81,0.00,,,0.00,Wunderground v.1.15,2013-03-13 01:52:00,
2013-03-12 21:53:00,71.5,65.0,29.98,SW,219,0.0,4.0,80,0.00,,,0.00,Wunderground v.1.15,2013-03-13 01:53:00,
2013-03-12 21:54:00,71.5,65.0,29.98,WSW,240,0.0,4.0,80,0.00,,,0.00,Wunderground v.1.15,2013-03-13 01:54:00,
2013-03-12 21:56:00,71.6,65.1,29.98,WSW,243,1.0,4.0,80,0.00,,,0.00,Wunderground v.1.15,2013-03-13 01:56:00,
2013-03-12 22:00:00,71.6,65.5,29.98,SSW,195,1.0,1.0,81,0.00,,,0.00,Wunderground v.1.15,2013-03-13 02:00:00,
2013-03-12 22:02:00,71.6,65.1,29.98,WSW,240,1.0,2.0,80,0.00,,,0.00,Wunderground v.1.15,2013-03-13 02:02:00,
2013-03-12 22:05:00,71.6,65.1,29.98,SW,217,1.0,2.0,80,0.00,,,0.00,Wunderground v.1.15,2013-03-13 02:05:00,
2013-03-12 22:07:00,71.6,65.1,29.98,WSW,246,1.0,2.0,80,0.00,,,0.00,Wunderground v.1.15,2013-03-13 02:07:00,
2013-03-12 22:10:00,71.6,65.1,29.98,SSW,203,1.0,1.0,80,0.00,,,0.00,Wunderground v.1.15,2013-03-13 02:10:00,
2013-03-12 22:11:00,71.6,65.5,29.98,SW,219,1.0,1.0,81,0.00,,,0.00,Wunderground v.1.15,2013-03-13 02:11:00,
2013-03-12 22:13:00,71.5,65.4,29.98,WSW,253,1.0,1.0,81,0.00,,,0.00,Wunderground v.1.15,2013-03-13 02:13:00,
2013-03-12 22:14:00,71.5,65.4,29.98,WSW,257,1.0,1.0,81,0.00,,,0.00,Wunderground v.1.15,2013-03-13 02:14:00,
2013-03-12 22:16:00,71.5,65.4,29.99,West,275,1.0,2.0,81,0.00,,,0.00,Wunderground v.1.15,2013-03-13 02:16:00,
2013-03-12 22:20:00,71.4,65.3,29.99,SW,235,1.0,2.0,81,0.00,,,0.00,Wunderground v.1.15,2013-03-13 02:20:00,
2013-03-12 22:21:00,71.3,65.2,29.99,SW,232,1.0,2.0,81,0.00,,,0.00,Wunderground v.1.15,2013-03-13 02:21:00,
2013-03-12 22:26:00,71.2,65.1,29.99,WSW,245,1.0,3.0,81,0.00,,,0.00,Wunderground v.1.15,2013-03-13 02:26:00,
2013-03-12 22:28:00,71.2,65.1,29.99,South,191,1.0,3.0,81,0.00,,,0.00,Wunderground v.1.15,2013-03-13 02:28:00,
2013-03-12 22:30:00,71.2,65.1,29.99,West,281,1.0,1.0,81,0.00,,,0.00,Wunderground v.1.15,2013-03-13 02:30:00,
2013-03-12 22:32:00,71.1,65.0,29.99,WSW,248,1.0,5.0,81,0.00,,,0.00,Wunderground v.1.15,2013-03-13 02:32:00,
2013-03-12 22:35:00,71.1,65.0,29.99,SSW,204,1.0,5.0,81,0.00,,,0.00,Wunderground v.1.15,2013-03-13 02:35:00,
2013-03-12 22:37:00,71.1,65.0,29.99,South,188,1.0,5.0,81,0.00,,,0.00,Wunderground v.1.15,2013-03-13 02:37:00,
2013-03-12 22:40:00,71.1,65.0,29.99,NW,321,1.0,1.0,81,0.00,,,0.00,Wunderground v.1.15,2013-03-13 02:40:00,
2013-03-12 22:41:00,71.0,64.9,29.99,NW,314,1.0,5.0,81,0.00,,,0.00,Wunderground v.1.15,2013-03-13 02:41:00,
2013-03-12 22:43:00,71.0,65.2,29.99,SSW,213,1.0,5.0,82,0.00,,,0.00,Wunderground v.1.15,2013-03-13 02:43:00,
2013-03-12 22:45:00,70.9,64.8,29.99,WSW,241,0.0,5.0,81,0.00,,,0.00,Wunderground v.1.15,2013-03-13 02:45:00,
2013-03-12 22:46:00,71.0,64.9,29.99,NNW,330,1.0,5.0,81,0.00,,,0.00,Wunderground v.1.15,2013-03-13 02:46:00,
2013-03-12 22:47:00,70.9,65.1,29.99,NW,316,1.0,6.0,82,0.00,,,0.00,Wunderground v.1.15,2013-03-13 02:47:00,
2013-03-12 22:50:00,71.0,65.2,29.99,WNW,295,2.0,6.0,82,0.00,,,0.00,Wunderground v.1.15,2013-03-13 02:50:00,
2013-03-12 22:53:00,70.9,65.1,29.99,NW,312,3.0,7.0,82,0.00,,,0.00,Wunderground v.1.15,2013-03-13 02:53:00,
2013-03-12 22:54:00,70.8,65.4,29.99,WNW,291,4.0,7.0,83,0.00,,,0.00,Wunderground v.1.15,2013-03-13 02:54:00,
2013-03-12 22:56:00,70.7,65.3,29.99,WSW,250,5.0,7.0,83,0.00,,,0.00,Wunderground v.1.15,2013-03-13 02:56:00,
2013-03-12 23:00:00,70.6,65.2,29.99,NW,307,5.0,5.0,83,0.00,,,0.00,Wunderground v.1.15,2013-03-13 03:00:00,
2013-03-12 23:02:00,70.5,65.4,29.99,NW,307,5.0,5.0,84,0.00,,,0.00,Wunderground v.1.15,2013-03-13 03:02:00,
2013-03-12 23:03:00,70.5,65.4,29.99,NW,316,5.0,6.0,84,0.00,,,0.00,Wunderground v.1.15,2013-03-13 03:03:00,
2013-03-12 23:05:00,70.5,65.1,29.99,NNW,346,5.0,6.0,83,0.00,,,0.00,Wunderground v.1.15,2013-03-13 03:05:00,
2013-03-12 23:08:00,70.4,65.3,29.99,West,274,5.0,8.0,84,0.00,,,0.00,Wunderground v.1.15,2013-03-13 03:08:00,
2013-03-12 23:10:00,70.3,64.9,29.99,WNW,297,5.0,8.0,83,0.00,,,0.00,Wunderground v.1.15,2013-03-13 03:10:00,
2013-03-12 23:11:00,70.3,64.9,29.99,WNW,303,6.0,8.0,83,0.00,,,0.00,Wunderground v.1.15,2013-03-13 03:11:00,
2013-03-12 23:15:00,70.2,65.1,29.99,NW,321,6.0,8.0,84,0.00,,,0.00,Wunderground v.1.15,2013-03-13 03:15:00,
2013-03-12 23:16:00,70.2,65.1,29.99,WSW,252,5.0,8.0,84,0.00,,,0.00,Wunderground v.1.15,2013-03-13 03:16:00,
2013-03-12 23:17:00,70.1,65.0,29.99,WNW,303,5.0,8.0,84,0.00,,,0.00,Wunderground v.1.15,2013-03-13 03:17:00,
2013-03-12 23:19:00,70.1,65.0,29.99,NW,309,5.0,8.0,84,0.00,,,0.00,Wunderground v.1.15,2013-03-13 03:19:00,
2013-03-12 23:22:00,70.0,64.9,29.99,WNW,297,5.0,5.0,84,0.00,,,0.00,Wunderground v.1.15,2013-03-13 03:22:00,
2013-03-12 23:23:00,70.0,64.9,29.99,West,277,5.0,6.0,84,0.00,,,0.00,Wunderground v.1.15,2013-03-13 03:23:00,
2013-03-12 23:25:00,70.0,64.9,29.99,WNW,300,4.0,6.0,84,0.00,,,0.00,Wunderground v.1.15,2013-03-13 03:25:00,
2013-03-12 23:29:00,69.9,64.8,29.99,NW,314,4.0,6.0,84,0.00,,,0.00,Wunderground v.1.15,2013-03-13 03:29:00,
2013-03-12 23:32:00,69.9,65.2,29.99,West,280,4.0,4.0,85,0.00,,,0.00,Wunderground v.1.15,2013-03-13 03:32:00,
2013-03-12 23:34:00,69.8,65.1,30.00,West,278,3.0,4.0,85,0.00,,,0.00,Wunderground v.1.15,2013-03-13 03:34:00,
2013-03-12 23:35:00,69.8,65.1,30.00,WNW,297,3.0,4.0,85,0.00,,,0.00,Wunderground v.1.15,2013-03-13 03:35:00,
2013-03-12 23:36:00,69.7,65.0,30.00,NNW,331,3.0,4.0,85,0.00,,,0.00,Wunderground v.1.15,2013-03-13 03:36:00,
2013-03-12 23:41:00,69.6,64.9,30.00,NW,313,2.0,6.0,85,0.00,,,0.00,Wunderground v.1.15,2013-03-13 03:41:00,
2013-03-12 23:42:00,69.6,64.9,30.00,NW,311,2.0,6.0,85,0.00,,,0.00,Wunderground v.1.15,2013-03-13 03:42:00,
2013-03-12 23:43:00,69.6,65.2,30.00,WNW,301,2.0,6.0,86,0.00,,,0.00,Wunderground v.1.15,2013-03-13 03:43:00,
2013-03-12 23:47:00,69.6,65.2,30.00,WNW,293,2.0,6.0,86,0.00,,,0.00,Wunderground v.1.15,2013-03-13 03:47:00,
2013-03-12 23:48:00,69.6,65.2,30.00,WNW,303,2.0,6.0,86,0.00,,,0.00,Wunderground v.1.15,2013-03-13 03:48:00,
2013-03-12 23:49:00,69.5,64.8,30.00,NW,319,2.0,6.0,85,0.00,,,0.00,Wunderground v.1.15,2013-03-13 03:49:00,
2013-03-12 23:53:00,69.5,65.1,30.00,WNW,298,2.0,4.0,86,0.00,,,0.00,Wunderground v.1.15,2013-03-13 03:53:00,
2013-03-12 23:54:00,69.5,65.1,30.00,WNW,293,2.0,4.0,86,0.00,,,0.00,Wunderground v.1.15,2013-03-13 03:54:00,
2013-03-12 23:55:00,69.5,65.1,30.00,NW,317,2.0,4.0,86,0.00,,,0.00,Wunderground v.1.15,2013-03-13 03:55:00,
2013-03-12 23:56:00,69.4,65.4,30.00,NW,318,2.0,4.0,87,0.00,,,0.00,Wunderground v.1.15,2013-03-13 03:56:00,